Tracking 30970 objects as of 3-Jul-2025
HD Live streaming from Space Station
objects crossing your sky now

COSMOS 2251 DEB

Track COSMOS 2251 DEB now!
10-day predictions


NORAD ID: 34129
Int'l Code: 1993-036LA
Perigee: 634.0 km
Apogee: 686.8 km
Inclination: 74.0 °
Period: 97.8 minutes
Semi major axis: 7031 km
RCS: 0.0571 m2 (small)
Launch date: June 16, 1993
Source: Commonwealth of Independent States (former USSR) (CIS)
Launch site: PLESETSK MISSILE AND SPACE COMPLEX (PKMTR)

Note: This is SATELLITE DEBRIS
Your satellite tracking list
SL-12 DEB
Track 1 satellite(s)




NASA's NSSDC Master Catalog

Two Line Element Set (TLE):
1 34129U 93036LA  25183.70756520  .00005319  00000-0  83385-3 0  9999
2 34129  74.0372 297.5678 0037507  63.4175 297.0833 14.72447252588962
Source of the keplerian elements: AFSPC